Location: HF.RADOM.PL
(51.4000°N, 21.1600°E)
Time: 12:17:46
(UTC+01:00)

ISS - Visible Passes

Search period start: 22 January 2020 00:00
Search period end: 01 February 2020 00:00
Orbit: 415 x 421 km, 51.6° (Epoch: 22 January)

Date Brightness Start Highest point End Pass type
(mag) Time Alt. Az. Time Alt. Az. Time Alt. Az.
22 Jan -2.0 18:26:25 10° SSW 18:28:18 24° S 18:28:18 24° S visible
23 Jan -2.2 17:38:55 10° SSW 17:41:35 22° SE 17:42:27 20° ESE visible
23 Jan -0.8 19:14:38 10° WSW 19:15:23 16° WSW 19:15:23 16° WSW visible
24 Jan -1.6 16:51:42 10° S 16:53:46 15° SE 16:55:51 10° ESE visible
24 Jan -3.1 18:26:44 10° WSW 18:29:28 47° SSW 18:29:28 47° SSW visible
25 Jan -3.0 17:38:54 10° SW 17:42:05 41° SSE 17:43:30 26° E visible
25 Jan -1.0 19:15:22 10° W 19:16:26 19° W 19:16:26 19° W visible
26 Jan -2.5 16:51:11 10° SSW 16:54:11 30° SSE 16:57:11 10° E visible
26 Jan -3.6 18:27:20 10° WSW 18:30:25 72° WSW 18:30:25 72° WSW visible
27 Jan -3.7 17:39:20 10° WSW 17:42:41 69° SSE 17:44:22 27° E visible
27 Jan -1.1 19:16:06 10° W 19:17:17 20° W 19:17:17 20° W visible
28 Jan -3.3 16:51:24 10° WSW 16:54:42 54° SSE 16:58:00 10° E visible
28 Jan -3.7 18:28:02 10° W 18:31:13 77° WNW 18:31:13 77° WNW visible
29 Jan -3.8 17:39:58 10° W 17:43:21 88° NNW 17:45:08 26° E visible
29 Jan -1.2 19:16:47 10° W 19:18:04 21° W 19:18:04 21° W visible
30 Jan -3.7 16:51:54 10° WSW 16:55:16 82° S 16:58:39 10° E visible
30 Jan -3.8 18:28:42 10° W 18:31:58 83° W 18:31:58 83° W visible
31 Jan -3.8 17:40:37 10° W 17:44:00 85° N 17:45:55 24° E visible
31 Jan -1.3 19:17:25 10° W 19:18:51 22° W 19:18:51 22° W visible
